| time (UTC) | temp F | wind direction | speed knots | gust knots | rain 1hr in | rain 24hr in | rain mn in | humidity % | barometer mb |
| 20260901134025 | 93 | 98 | 13.0 | 17.4 | 0.00 | 0.00 | 0.00 | 36 | 1014.7 |
| 20260901133525 | 93 | 105 | 9.6 | 18.2 | 0.00 | 0.00 | 0.00 | 36 | 1014.6 |
| 20260901133021 | 93 | 61 | 12.2 | 18.2 | 0.00 | 0.00 | 0.00 | 36 | 1014.6 |
| 20260901132520 | 93 | 84 | 9.6 | 19.1 | 0.00 | 0.00 | 0.00 | 35 | 1014.7 |
| 20260901132021 | 93 | 90 | 11.3 | 19.1 | 0.00 | 0.00 | 0.00 | 35 | 1014.5 |
| 20260901131522 | 93 | 55 | 8.7 | 17.4 | 0.00 | 0.00 | 0.00 | 35 | 1014.6 |
| 20260901131016 | 94 | 89 | 10.4 | 20.0 | 0.00 | 0.00 | 0.00 | 35 | 1014.6 |
| 20260901130515 | 93 | 79 | 12.2 | 20.0 | 0.00 | 0.00 | 0.00 | 35 | 1014.6 |
| 20260901130014 | 93 | 106 | 9.6 | 19.1 | 0.00 | 0.00 | 0.00 | 35 | 1014.6 |
| 20260901125512 | 93 | 120 | 7.8 | 15.6 | 0.00 | 0.00 | 0.00 | 35 | 1014.6 |
| 20260901125011 | 93 | 78 | 8.7 | 17.4 | 0.00 | 0.00 | 0.00 | 35 | 1014.7 |
| 20260901124510 | 93 | 99 | 11.3 | 17.4 | 0.00 | 0.00 | 0.00 | 35 | 1014.7 |
| 20260901124009 | 93 | 128 | 8.7 | 16.5 | 0.00 | 0.00 | 0.00 | 35 | 1014.8 |
| 20260901123511 | 94 | 90 | 9.6 | 18.2 | 0.00 | 0.00 | 0.00 | 35 | 1014.9 |
| 20260901123015 | 93 | 109 | 8.7 | 18.2 | 0.00 | 0.00 | 0.00 | 34 | 1014.9 |
| 20260901122505 | 94 | 105 | 9.6 | 15.6 | 0.00 | 0.00 | 0.00 | 34 | 1015.1 |
| 20260901122003 | 93 | 86 | 7.8 | 15.6 | 0.00 | 0.00 | 0.00 | 35 | 1015.1 |
| 20260901121502 | 94 | 113 | 7.8 | 16.5 | 0.00 | 0.00 | 0.00 | 35 | 1015.1 |
| 20260901121101 | 93 | 71 | 7.8 | 18.2 | 0.00 | 0.00 | 0.00 | 34 | 1015.3 |
| 20260901120604 | 93 | 73 | 11.3 | 19.1 | 0.00 | 0.00 | 0.00 | 34 | 1015.1 |
| 20260901120113 | 93 | 96 | 7.8 | 18.2 | 0.00 | 0.00 | 0.00 | 34 | 1015.2 |
| 20260901115604 | 93 | 119 | 10.4 | 18.2 | 0.00 | 0.00 | 0.00 | 34 | 1015.3 |
| 20260901115100 | 93 | 91 | 9.6 | 15.6 | 0.00 | 0.00 | 0.00 | 34 | 1015.3 |
| 20260901114559 | 94 | 103 | 7.0 | 18.2 | 0.00 | 0.00 | 0.00 | 33 | 1015.3 |
| 20260901114057 | 93 | 48 | 10.4 | 18.2 | 0.00 | 0.00 | 0.00 | 33 | 1015.2 |
| 20260901113555 | 93 | 96 | 7.0 | 17.4 | 0.00 | 0.00 | 0.00 | 34 | 1015.3 |
| 20260901113059 | 93 | 74 | 11.3 | 19.1 | 0.00 | 0.00 | 0.00 | 34 | 1015.3 |
| 20260901112553 | 93 | 107 | 8.7 | 21.7 | 0.00 | 0.00 | 0.00 | 34 | 1015.2 |
| 20260901112051 | 93 | 58 | 11.3 | 17.4 | 0.00 | 0.00 | 0.00 | 34 | 1015.2 |
| 20260901111550 | 93 | 34 | 12.2 | 17.4 | 0.00 | 0.00 | 0.00 | 34 | 1015.2 |
| 20260901111047 | 93 | 70 | 11.3 | 20.0 | 0.00 | 0.00 | 0.00 | 34 | 1015.3 |
| 20260901110548 | 93 | 61 | 12.2 | 20.0 | 0.00 | 0.00 | 0.00 | 34 | 1015.3 |
| 20260901110045 | 93 | 44 | 7.8 | 15.6 | 0.00 | 0.00 | 0.00 | 34 | 1015.3 |
| 20260901105543 | 93 | 60 | 7.8 | 17.4 | 0.00 | 0.00 | 0.00 | 34 | 1015.3 |
| 20260901105045 | 93 | 71 | 10.4 | 17.4 | 0.00 | 0.00 | 0.00 | 33 | 1015.4 |
| 20260901104551 | 93 | 81 | 8.7 | 19.1 | 0.00 | 0.00 | 0.00 | 33 | 1015.5 |
| 20260901104042 | 92 | 60 | 11.3 | 19.1 | 0.00 | 0.00 | 0.00 | 33 | 1015.4 |
| 20260901103540 | 92 | 67 | 8.7 | 16.5 | 0.00 | 0.00 | 0.00 | 33 | 1015.6 |
| 20260901103041 | 92 | 117 | 8.7 | 13.9 | 0.00 | 0.00 | 0.00 | 34 | 1015.6 |
| 20260901102540 | 92 | 55 | 8.7 | 17.4 | 0.00 | 0.00 | 0.00 | 33 | 1015.7 |
| 20260901102041 | 92 | 79 | 8.7 | 19.1 | 0.00 | 0.00 | 0.00 | 33 | 1015.7 |
| 20260901101540 | 92 | 74 | 8.7 | 19.1 | 0.00 | 0.00 | 0.00 | 34 | 1015.9 |
| 20260901101039 | 92 | 80 | 12.2 | 19.1 | 0.00 | 0.00 | 0.00 | 33 | 1015.8 |
| 20260901100539 | 92 | 74 | 5.2 | 14.8 | 0.00 | 0.00 | 0.00 | 34 | 1015.8 |
| 20260901100044 | 92 | 90 | 7.0 | 15.6 | 0.00 | 0.00 | 0.00 | 34 | 1015.6 |
| 20260901095537 | 92 | 112 | 11.3 | 15.6 | 0.00 | 0.00 | 0.00 | 34 | 1015.6 |
| 20260901095037 | 92 | 66 | 7.0 | 20.9 | 0.00 | 0.00 | 0.00 | 34 | 1015.8 |
| 20260901094537 | 91 | 84 | 14.8 | 20.9 | 0.00 | 0.00 | 0.00 | 33 | 1015.8 |
| 20260901094038 | 91 | 135 | 9.6 | 16.5 | 0.00 | 0.00 | 0.00 | 33 | 1015.8 |
| 20260901093535 | 91 | 32 | 7.0 | 18.2 | 0.00 | 0.00 | 0.00 | 34 | 1015.8 |
| 20260901093034 | 91 | 61 | 8.7 | 15.6 | 0.00 | 0.00 | 0.00 | 35 | 1015.8 |
| 20260901092534 | 92 | 91 | 8.7 | 17.4 | 0.00 | 0.00 | 0.00 | 35 | 1015.7 |
| 20260901092034 | 92 | 53 | 7.8 | 17.4 | 0.00 | 0.00 | 0.00 | 35 | 1015.8 |
| 20260901091534 | 92 | 61 | 4.3 | 13.9 | 0.00 | 0.00 | 0.00 | 36 | 1015.6 |
| 20260901091031 | 91 | 68 | 3.5 | 14.8 | 0.00 | 0.00 | 0.00 | 36 | 1015.7 |
| 20260901090531 | 91 | 65 | 6.1 | 13.9 | 0.00 | 0.00 | 0.00 | 36 | 1015.7 |
| 20260901090027 | 90 | 94 | 7.8 | 17.4 | 0.00 | 0.00 | 0.00 | 37 | 1015.6 |
| 20260901085526 | 90 | 86 | 9.6 | 20.0 | 0.00 | 0.00 | 0.00 | 37 | 1015.6 |
| 20260901085025 | 90 | 78 | 11.3 | 20.0 | 0.00 | 0.00 | 0.00 | 36 | 1015.6 |
| 20260901084541 | 90 | 97 | 7.8 | 16.5 | 0.00 | 0.00 | 0.00 | 37 | 1015.8 |
| 20260901084024 | 90 | 59 | 6.1 | 17.4 | 0.00 | 0.00 | 0.00 | 37 | 1015.8 |
| 20260901083521 | 90 | 50 | 9.6 | 17.4 | 0.00 | 0.00 | 0.00 | 37 | 1015.7 |
| 20260901083022 | 90 | 28 | 8.7 | 14.8 | 0.00 | 0.00 | 0.00 | 37 | 1015.7 |
| 20260901082519 | 90 | 95 | 7.8 | 16.5 | 0.00 | 0.00 | 0.00 | 38 | 1015.6 |
| 20260901082017 | 89 | 92 | 7.0 | 18.2 | 0.00 | 0.00 | 0.00 | 39 | 1015.6 |
| 20260901081522 | 89 | 46 | 8.7 | 18.2 | 0.00 | 0.00 | 0.00 | 39 | 1015.6 |
| 20260901081015 | 89 | 117 | 11.3 | 18.2 | 0.00 | 0.00 | 0.00 | 39 | 1015.7 |
| 20260901080514 | 89 | 58 | 9.6 | 18.2 | 0.00 | 0.00 | 0.00 | 39 | 1015.7 |
| 20260901080018 | 89 | 87 | 11.3 | 16.5 | 0.00 | 0.00 | 0.00 | 39 | 1015.7 |
| 20260901075512 | 88 | 80 | 8.7 | 14.8 | 0.00 | 0.00 | 0.00 | 40 | 1015.6 |
| 20260901075011 | 88 | 96 | 6.1 | 13.9 | 0.00 | 0.00 | 0.00 | 41 | 1015.6 |
| 20260901074509 | 87 | 113 | 7.8 | 14.8 | 0.00 | 0.00 | 0.00 | 42 | 1015.6 |
| 20260901074010 | 87 | 90 | 7.0 | 14.8 | 0.00 | 0.00 | 0.00 | 44 | 1015.6 |
| 20260901073506 | 86 | 130 | 5.2 | 13.0 | 0.00 | 0.00 | 0.00 | 45 | 1015.5 |
| 20260901073005 | 86 | 128 | 7.8 | 13.0 | 0.00 | 0.00 | 0.00 | 45 | 1015.6 |
| 20260901072503 | 86 | 107 | 8.7 | 14.8 | 0.00 | 0.00 | 0.00 | 45 | 1015.4 |
| 20260901072001 | 86 | 59 | 9.6 | 14.8 | 0.00 | 0.00 | 0.00 | 45 | 1015.5 |
| 20260901071601 | 86 | 124 | 7.0 | 10.4 | 0.00 | 0.00 | 0.00 | 45 | 1015.4 |
| 20260901071100 | 86 | 149 | 3.5 | 10.4 | 0.00 | 0.00 | 0.00 | 46 | 1015.5 |
| 20260901070557 | 85 | 99 | 6.1 | 9.6 | 0.00 | 0.00 | 0.00 | 45 | 1015.3 |
| 20260901070057 | 85 | 32 | 4.3 | 8.7 | 0.00 | 0.00 | 0.00 | 46 | 1015.4 |
| 20260901065558 | 85 | 76 | 5.2 | 10.4 | 0.00 | 0.00 | 0.00 | 47 | 1015.4 |
| 20260901065053 | 85 | 106 | 6.1 | 10.4 | 0.00 | 0.00 | 0.00 | 47 | 1015.5 |
| 20260901064552 | 85 | 121 | 0.0 | 7.0 | 0.00 | 0.00 | 0.00 | 48 | 1015.4 |
| 20260901064051 | 84 | 60 | 2.6 | 7.0 | 0.00 | 0.00 | 0.00 | 48 | 1015.5 |
| 20260901063548 | 84 | 119 | 2.6 | 7.0 | 0.00 | 0.00 | 0.00 | 48 | 1015.5 |
| 20260901063106 | 83 | 94 | 1.7 | 3.5 | 0.00 | 0.00 | 0.00 | 49 | 1015.6 |
| 20260901062545 | 82 | 285 | 0.0 | 2.6 | 0.00 | 0.00 | 0.00 | 50 | 1015.7 |
| 20260901062044 | 82 | 289 | 0.0 | 2.6 | 0.00 | 0.00 | 0.00 | 50 | 1015.6 |
| 20260901061547 | 82 | 98 | 0.0 | 3.5 | 0.00 | 0.00 | 0.00 | 50 | 1015.5 |
| 20260901061042 | 82 | 78 | 0.9 | 3.5 | 0.00 | 0.00 | 0.00 | 51 | 1015.7 |
| 20260901060542 | 81 | 83 | 0.9 | 3.5 | 0.00 | 0.00 | 0.00 | 51 | 1015.6 |
| 20260901060040 | 81 | 287 | 0.0 | 0.9 | 0.00 | 0.00 | 0.00 | 52 | 1015.7 |
| 20260901055542 | 81 | 290 | 0.0 | 0.9 | 0.00 | 0.00 | 0.00 | 51 | 1015.7 |
| 20260901055039 | 80 | 290 | 0.0 | 0.9 | 0.00 | 0.00 | 0.00 | 52 | 1015.9 |
| 20260901054538 | 80 | 295 | 0.0 | 1.7 | 0.00 | 0.00 | 0.00 | 52 | 1015.9 |
| 20260901054037 | 79 | 294 | 0.0 | 2.6 | 0.00 | 0.00 | 0.00 | 53 | 1015.9 |
| 20260901053535 | 79 | 326 | 0.9 | 4.3 | 0.00 | 0.00 | 0.00 | 53 | 1015.8 |
| 20260901053041 | 79 | 350 | 1.7 | 4.3 | 0.00 | 0.00 | 0.00 | 54 | 1015.8 |
| 20260901052532 | 78 | 360 | 2.6 | 4.3 | 0.00 | 0.00 | 0.00 | 54 | 1015.8 |
| 20260901052031 | 78 | 23 | 0.9 | 3.5 | 0.00 | 0.00 | 0.00 | 54 | 1015.8 |
| 20260901051530 | 77 | 342 | 1.7 | 3.5 | 0.00 | 0.00 | 0.00 | 55 | 1015.8 |
| 20260901051030 | 77 | 360 | 1.7 | 5.2 | 0.00 | 0.00 | 0.00 | 55 | 1015.8 |
| 20260901050529 | 77 | 360 | 3.5 | 5.2 | 0.00 | 0.00 | 0.00 | 53 | 1015.8 |
| 20260901050027 | 77 | 33 | 0.0 | 3.5 | 0.00 | 0.00 | 0.00 | 54 | 1015.7 |
| 20260901045527 | 76 | 18 | 0.9 | 3.5 | 0.00 | 0.00 | 0.00 | 54 | 1015.7 |
| 20260901045024 | 76 | 30 | 0.9 | 3.5 | 0.00 | 0.00 | 0.00 | 54 | 1015.6 |
| 20260901044530 | 76 | 72 | 0.0 | 2.6 | 0.00 | 0.00 | 0.00 | 55 | 1015.4 |
| 20260901044021 | 75 | 57 | 1.7 | 2.6 | 0.00 | 0.00 | 0.00 | 56 | 1015.5 |
| 20260901043519 | 74 | 35 | 1.7 | 3.5 | 0.00 | 0.00 | 0.00 | 57 | 1015.5 |
| 20260901043021 | 74 | 5 | 1.7 | 3.5 | 0.00 | 0.00 | 0.00 | 57 | 1015.5 |
| 20260901042516 | 74 | 344 | 1.7 | 3.5 | 0.00 | 0.00 | 0.00 | 56 | 1015.4 |
| 20260901042019 | 75 | 45 | 0.0 | 3.5 | 0.00 | 0.00 | 0.00 | 56 | 1015.3 |
| 20260901041516 | 74 | 40 | 0.9 | 5.2 | 0.00 | 0.00 | 0.00 | 56 | 1015.2 |
| 20260901041014 | 74 | 51 | 2.6 | 5.2 | 0.00 | 0.00 | 0.00 | 56 | 1015.2 |
| 20260901040513 | 74 | 15 | 3.5 | 5.2 | 0.00 | 0.00 | 0.00 | 56 | 1015.2 |
| 20260901040013 | 74 | 23 | 2.6 | 5.2 | 0.00 | 0.00 | 0.00 | 55 | 1015.1 |
| 20260901035513 | 74 | 15 | 0.9 | 4.3 | 0.00 | 0.00 | 0.00 | 55 | 1015.1 |
| 20260901035012 | 74 | 11 | 1.7 | 3.5 | 0.00 | 0.00 | 0.00 | 55 | 1015.1 |
| 20260901034518 | 74 | 49 | 0.9 | 5.2 | 0.00 | 0.00 | 0.00 | 55 | 1015.0 |
| 20260901034011 | 73 | 22 | 0.9 | 5.2 | 0.00 | 0.00 | 0.00 | 56 | 1015.0 |
| 20260901033511 | 74 | 15 | 3.5 | 7.0 | 0.00 | 0.00 | 0.00 | 55 | 1015.0 |
| 20260901033009 | 74 | 11 | 0.9 | 7.0 | 0.00 | 0.00 | 0.00 | 55 | 1014.9 |
| 20260901032509 | 75 | 30 | 2.6 | 7.0 | 0.00 | 0.00 | 0.00 | 54 | 1014.9 |
| 20260901032008 | 75 | 92 | 0.0 | 3.5 | 0.00 | 0.00 | 0.00 | 53 | 1014.9 |
| 20260901031509 | 75 | 103 | 0.9 | 3.5 | 0.00 | 0.00 | 0.00 | 53 | 1014.9 |
| 20260901031008 | 75 | 74 | 0.9 | 3.5 | 0.00 | 0.00 | 0.00 | 53 | 1014.9 |
| 20260901030507 | 75 | 46 | 0.9 | 3.5 | 0.00 | 0.00 | 0.00 | 53 | 1015.0 |
| 20260901030007 | 75 | 43 | 1.7 | 5.2 | 0.00 | 0.00 | 0.00 | 53 | 1015.0 |
| 20260901025508 | 75 | 15 | 3.5 | 5.2 | 0.00 | 0.00 | 0.00 | 53 | 1015.1 |
| 20260901025007 | 75 | 38 | 2.6 | 4.3 | 0.00 | 0.00 | 0.00 | 53 | 1014.9 |
| 20260901024508 | 76 | 58 | 0.0 | 5.2 | 0.00 | 0.00 | 0.00 | 52 | 1014.9 |
| 20260901024009 | 75 | 43 | 2.6 | 5.2 | 0.00 | 0.00 | 0.00 | 53 | 1014.8 |
| 20260901023505 | 75 | 35 | 0.9 | 4.3 | 0.00 | 0.00 | 0.00 | 52 | 1014.8 |
| 20260901023005 | 76 | 20 | 0.9 | 5.2 | 0.00 | 0.00 | 0.00 | 52 | 1014.9 |
| 20260901022505 | 76 | 59 | 0.9 | 5.2 | 0.00 | 0.00 | 0.00 | 51 | 1014.8 |
| 20260901022005 | 77 | 57 | 0.0 | 4.3 | 0.00 | 0.00 | 0.00 | 50 | 1014.8 |
| 20260901021505 | 76 | 53 | 0.9 | 4.3 | 0.00 | 0.00 | 0.00 | 50 | 1014.8 |
| 20260901021005 | 76 | 97 | 2.6 | 4.3 | 0.00 | 0.00 | 0.00 | 51 | 1014.8 |
| 20260901020505 | 76 | 56 | 0.9 | 4.3 | 0.00 | 0.00 | 0.00 | 51 | 1014.8 |
| 20260901020005 | 76 | 59 | 0.0 | 4.3 | 0.00 | 0.00 | 0.00 | 52 | 1014.7 |
| 20260901015508 | 75 | 33 | 0.9 | 5.2 | 0.00 | 0.00 | 0.00 | 52 | 1014.8 |
| 20260901015005 | 75 | 13 | 3.5 | 5.2 | 0.00 | 0.00 | 0.00 | 52 | 1014.8 |
| 20260901014503 | 75 | 18 | 1.7 | 4.3 | 0.00 | 0.00 | 0.00 | 52 | 1014.8 |
| 20260901014004 | 75 | 17 | 1.7 | 3.5 | 0.00 | 0.00 | 0.00 | 52 | 1014.9 |
| 20260901013501 | 76 | 26 | 1.7 | 3.5 | 0.00 | 0.00 | 0.00 | 52 | 1014.7 |
| 20260901013001 | 75 | 32 | 0.9 | 2.6 | 0.00 | 0.00 | 0.00 | 52 | 1014.8 |
| 20260901012501 | 75 | 50 | 0.0 | 4.3 | 0.00 | 0.00 | 0.00 | 52 | 1014.9 |
| 20260901012101 | 75 | 34 | 0.9 | 4.3 | 0.00 | 0.00 | 0.00 | 52 | 1014.9 |
| 20260901011600 | 76 | 30 | 1.7 | 4.3 | 0.00 | 0.00 | 0.00 | 51 | 1014.9 |
| 20260901011059 | 76 | 61 | 0.9 | 3.5 | 0.00 | 0.00 | 0.00 | 51 | 1014.9 |
| 20260901010559 | 76 | 63 | 0.9 | 4.3 | 0.00 | 0.00 | 0.00 | 50 | 1014.9 |
| 20260901010059 | 76 | 355 | 1.7 | 4.3 | 0.00 | 0.00 | 0.00 | 51 | 1014.8 |
| 20260901005558 | 76 | 5 | 0.9 | 7.0 | 0.00 | 0.00 | 0.00 | 50 | 1014.9 |
| 20260901005057 | 77 | 15 | 0.9 | 7.0 | 0.00 | 0.00 | 0.00 | 49 | 1014.9 |
| 20260901004615 | 77 | 5 | 0.0 | 7.0 | 0.00 | 0.00 | 0.00 | 49 | 1014.9 |
| 20260901004101 | 77 | 98 | 2.6 | 6.1 | 0.00 | 0.00 | 0.00 | 48 | 1015.0 |
| 20260901003559 | 77 | 55 | 3.5 | 7.0 | 0.00 | 0.00 | 0.00 | 48 | 1015.1 |
| 20260901003056 | 77 | 67 | 4.3 | 7.8 | 0.00 | 0.00 | 0.00 | 48 | 1015.0 |
| 20260901002555 | 77 | 55 | 4.3 | 8.7 | 0.00 | 0.00 | 0.00 | 48 | 1015.0 |
| 20260901002055 | 77 | 39 | 5.2 | 8.7 | 0.00 | 0.00 | 0.00 | 48 | 1015.0 |
| 20260901001559 | 77 | 38 | 4.3 | 7.8 | 0.00 | 0.00 | 0.00 | 48 | 1015.1 |
| 20260901001054 | 77 | 45 | 2.6 | 7.8 | 0.00 | 0.00 | 0.00 | 48 | 1015.1 |
| 20260901000556 | 77 | 55 | 5.2 | 7.8 | 0.00 | 0.00 | 0.00 | 48 | 1015.1 |
| 20260901000103 | 77 | 30 | 4.3 | 7.8 | 0.00 | 0.00 | 0.00 | 48 | 1015.1 |
| 20260831235553 | 77 | 44 | 5.2 | 7.8 | 0.00 | 0.00 | 0.00 | 48 | 1015.2 |
| 20260831235053 | 77 | 20 | 4.3 | 7.0 | 0.00 | 0.00 | 0.00 | 48 | 1015.2 |
| 20260831234552 | 77 | 11 | 4.3 | 7.8 | 0.00 | 0.00 | 0.00 | 48 | 1015.2 |
| 20260831234052 | 77 | 5 | 4.3 | 7.0 | 0.00 | 0.00 | 0.00 | 49 | 1015.3 |
| 20260831233551 | 76 | 16 | 4.3 | 5.2 | 0.00 | 0.00 | 0.00 | 49 | 1015.3 |
| 20260831233051 | 77 | 5 | 3.5 | 5.2 | 0.00 | 0.00 | 0.00 | 49 | 1015.3 |
| 20260831232548 | 77 | 19 | 2.6 | 5.2 | 0.00 | 0.00 | 0.00 | 48 | 1015.4 |
| 20260831232048 | 77 | 34 | 2.6 | 5.2 | 0.00 | 0.00 | 0.00 | 48 | 1015.4 |
| 20260831231546 | 78 | 20 | 2.6 | 4.3 | 0.00 | 0.00 | 0.00 | 47 | 1015.4 |
| 20260831231045 | 78 | 5 | 2.6 | 5.2 | 0.00 | 0.00 | 0.00 | 46 | 1015.4 |
| 20260831230547 | 79 | 44 | 2.6 | 6.1 | 0.00 | 0.00 | 0.00 | 45 | 1015.6 |
| 20260831230046 | 79 | 82 | 2.6 | 8.7 | 0.00 | 0.00 | 0.00 | 45 | 1015.6 |
| 20260831225544 | 80 | 63 | 5.2 | 8.7 | 0.00 | 0.00 | 0.00 | 45 | 1015.5 |
| 20260831225044 | 80 | 61 | 5.2 | 8.7 | 0.00 | 0.00 | 0.00 | 44 | 1015.6 |
| 20260831224544 | 80 | 67 | 5.2 | 8.7 | 0.00 | 0.00 | 0.00 | 44 | 1015.6 |
| 20260831224044 | 80 | 76 | 4.3 | 8.7 | 0.00 | 0.00 | 0.00 | 44 | 1015.7 |
| 20260831223543 | 80 | 72 | 4.3 | 7.0 | 0.00 | 0.00 | 0.00 | 44 | 1015.7 |
| 20260831223042 | 80 | 79 | 3.5 | 7.0 | 0.00 | 0.00 | 0.00 | 44 | 1015.7 |
| 20260831222542 | 80 | 90 | 4.3 | 7.0 | 0.00 | 0.00 | 0.00 | 44 | 1015.8 |
| 20260831222040 | 80 | 90 | 3.5 | 7.8 | 0.00 | 0.00 | 0.00 | 45 | 1015.8 |
| 20260831221540 | 79 | 95 | 4.3 | 7.8 | 0.00 | 0.00 | 0.00 | 45 | 1015.9 |
| 20260831221039 | 79 | 103 | 2.6 | 7.0 | 0.00 | 0.00 | 0.00 | 46 | 1016.0 |
| 20260831220539 | 78 | 74 | 3.5 | 6.1 | 0.00 | 0.00 | 0.00 | 46 | 1016.0 |
| 20260831220039 | 78 | 46 | 2.6 | 3.5 | 0.00 | 0.00 | 0.00 | 46 | 1016.0 |
| 20260831215539 | 78 | 48 | 0.9 | 4.3 | 0.00 | 0.00 | 0.00 | 47 | 1016.0 |
| 20260831215038 | 78 | 9 | 1.7 | 4.3 | 0.00 | 0.00 | 0.00 | 47 | 1016.0 |
| 20260831214540 | 78 | 44 | 0.0 | 3.5 | 0.00 | 0.00 | 0.00 | 47 | 1015.9 |
| 20260831214039 | 78 | 44 | 1.7 | 4.3 | 0.00 | 0.00 | 0.00 | 47 | 1016.0 |
| 20260831213536 | 79 | 12 | 2.6 | 5.2 | 0.00 | 0.00 | 0.00 | 46 | 1016.0 |
| 20260831213034 | 79 | 25 | 3.5 | 6.1 | 0.00 | 0.00 | 0.00 | 46 | 1016.1 |
| 20260831212534 | 80 | 344 | 2.6 | 7.0 | 0.00 | 0.00 | 0.00 | 44 | 1016.0 |
| 20260831212032 | 80 | 76 | 1.7 | 7.0 | 0.00 | 0.00 | 0.00 | 43 | 1016.0 |
| 20260831211532 | 80 | 63 | 2.6 | 5.2 | 0.00 | 0.00 | 0.00 | 43 | 1016.0 |
| 20260831211030 | 80 | 56 | 2.6 | 5.2 | 0.00 | 0.00 | 0.00 | 44 | 1016.1 |
| 20260831210530 | 80 | 42 | 2.6 | 4.3 | 0.00 | 0.00 | 0.00 | 45 | 1016.1 |
| 20260831210029 | 80 | 5 | 2.6 | 3.5 | 0.00 | 0.00 | 0.00 | 44 | 1016.1 |
| 20260831205529 | 80 | 346 | 0.9 | 2.6 | 0.00 | 0.00 | 0.00 | 44 | 1016.1 |
| 20260831205030 | 81 | 344 | 0.9 | 2.6 | 0.00 | 0.00 | 0.00 | 44 | 1016.1 |
| 20260831204529 | 81 | 355 | 0.0 | 2.6 | 0.00 | 0.00 | 0.00 | 44 | 1016.1 |
| 20260831204028 | 81 | 355 | 1.7 | 4.3 | 0.00 | 0.00 | 0.00 | 44 | 1016.0 |
| 20260831203528 | 81 | 355 | 1.7 | 4.3 | 0.00 | 0.00 | 0.00 | 44 | 1016.0 |
| 20260831203027 | 82 | 355 | 2.6 | 5.2 | 0.00 | 0.00 | 0.00 | 43 | 1016.1 |
| 20260831202527 | 82 | 5 | 1.7 | 5.2 | 0.00 | 0.00 | 0.00 | 43 | 1016.1 |
| 20260831202027 | 82 | 48 | 3.5 | 5.2 | 0.00 | 0.00 | 0.00 | 43 | 1016.1 |
| 20260831201527 | 82 | 30 | 2.6 | 4.3 | 0.00 | 0.00 | 0.00 | 44 | 1016.1 |
| 20260831201027 | 82 | 66 | 0.9 | 5.2 | 0.00 | 0.00 | 0.00 | 44 | 1016.1 |
| 20260831200527 | 82 | 70 | 2.6 | 6.1 | 0.00 | 0.00 | 0.00 | 44 | 1016.1 |
| 20260831200027 | 82 | 78 | 3.5 | 8.7 | 0.00 | 0.00 | 0.00 | 44 | 1016.1 |
| 20260831195527 | 82 | 63 | 3.5 | 8.7 | 0.00 | 0.00 | 0.00 | 44 | 1016.1 |
| 20260831195027 | 81 | 79 | 2.6 | 7.0 | 0.00 | 0.00 | 0.00 | 44 | 1016.1 |
| 20260831194526 | 82 | 38 | 1.7 | 7.8 | 0.00 | 0.00 | 0.00 | 44 | 1016.0 |
| 20260831194028 | 82 | 29 | 2.6 | 7.8 | 0.00 | 0.00 | 0.00 | 44 | 1016.0 |
| 20260831193527 | 82 | 5 | 0.0 | 2.6 | 0.00 | 0.00 | 0.00 | 44 | 1016.0 |
| 20260831193037 | 81 | 81 | 0.0 | 3.5 | 0.00 | 0.00 | 0.00 | 44 | 1016.0 |
| 20260831192525 | 81 | 80 | 0.0 | 4.3 | 0.00 | 0.00 | 0.00 | 44 | 1016.0 |
| 20260831192028 | 81 | 80 | 1.7 | 4.3 | 0.00 | 0.00 | 0.00 | 44 | 1016.0 |
| 20260831191525 | 82 | 114 | 1.7 | 7.8 | 0.00 | 0.00 | 0.00 | 44 | 1016.0 |
| 20260831191027 | 82 | 123 | 1.7 | 7.8 | 0.00 | 0.00 | 0.00 | 44 | 1016.0 |
| 20260831190525 | 82 | 134 | 1.7 | 9.6 | 0.00 | 0.00 | 0.00 | 43 | 1016.0 |
| 20260831190039 | 82 | 102 | 2.6 | 9.6 | 0.00 | 0.00 | 0.00 | 43 | 1015.9 |
| 20260831185525 | 82 | 88 | 5.2 | 9.6 | 0.00 | 0.00 | 0.00 | 43 | 1015.9 |
| 20260831185027 | 82 | 69 | 4.3 | 8.7 | 0.00 | 0.00 | 0.00 | 43 | 1015.7 |
| 20260831184524 | 82 | 95 | 4.3 | 8.7 | 0.00 | 0.00 | 0.00 | 43 | 1015.7 |
| 20260831184026 | 82 | 90 | 4.3 | 8.7 | 0.00 | 0.00 | 0.00 | 43 | 1015.5 |
| 20260831183524 | 82 | 75 | 2.6 | 8.7 | 0.00 | 0.00 | 0.00 | 43 | 1015.5 |
| 20260831183023 | 82 | 70 | 3.5 | 11.3 | 0.00 | 0.00 | 0.00 | 42 | 1015.4 |
| 20260831182523 | 82 | 72 | 6.1 | 11.3 | 0.00 | 0.00 | 0.00 | 42 | 1015.4 |
| 20260831182023 | 82 | 68 | 4.3 | 9.6 | 0.00 | 0.00 | 0.00 | 42 | 1015.3 |
| 20260831181524 | 83 | 60 | 5.2 | 9.6 | 0.00 | 0.00 | 0.00 | 42 | 1015.3 |
| 20260831181023 | 83 | 82 | 4.3 | 8.7 | 0.00 | 0.00 | 0.00 | 42 | 1015.3 |
| 20260831180522 | 83 | 72 | 3.5 | 9.6 | 0.00 | 0.00 | 0.00 | 42 | 1015.2 |
| 20260831180022 | 83 | 59 | 6.1 | 9.6 | 0.00 | 0.00 | 0.00 | 41 | 1015.2 |
| 20260831175622 | 83 | 71 | 6.1 | 11.3 | 0.00 | 0.00 | 0.00 | 41 | 1015.3 |
| 20260831175022 | 83 | 92 | 5.2 | 11.3 | 0.00 | 0.00 | 0.00 | 41 | 1015.2 |
| 20260831174521 | 83 | 62 | 6.1 | 11.3 | 0.00 | 0.00 | 0.00 | 41 | 1015.2 |
| 20260831174021 | 83 | 90 | 7.0 | 13.9 | 0.00 | 0.00 | 0.00 | 41 | 1015.1 |
| 20260831173521 | 84 | 67 | 7.0 | 13.9 | 0.00 | 0.00 | 0.00 | 41 | 1015.1 |
| 20260831173023 | 84 | 33 | 7.8 | 13.9 | 0.00 | 0.00 | 0.00 | 41 | 1015.2 |
| 20260831172521 | 84 | 67 | 5.2 | 12.2 | 0.00 | 0.00 | 0.00 | 40 | 1015.1 |
| 20260831172020 | 84 | 69 | 4.3 | 13.0 | 0.00 | 0.00 | 0.00 | 40 | 1015.0 |
| 20260831171520 | 85 | 65 | 6.1 | 12.2 | 0.00 | 0.00 | 0.00 | 40 | 1014.9 |
| 20260831171020 | 85 | 78 | 6.1 | 11.3 | 0.00 | 0.00 | 0.00 | 40 | 1014.9 |
| 20260831170520 | 85 | 59 | 5.2 | 12.2 | 0.00 | 0.00 | 0.00 | 40 | 1015.0 |
| 20260831170021 | 85 | 101 | 6.1 | 12.2 | 0.00 | 0.00 | 0.00 | 39 | 1015.0 |
| 20260831165520 | 85 | 82 | 6.1 | 13.9 | 0.00 | 0.00 | 0.00 | 39 | 1015.0 |
| 20260831165019 | 85 | 74 | 7.0 | 13.9 | 0.00 | 0.00 | 0.00 | 39 | 1015.0 |
| 20260831164521 | 86 | 77 | 7.0 | 14.8 | 0.00 | 0.00 | 0.00 | 39 | 1015.1 |
| 20260831164019 | 86 | 61 | 7.8 | 14.8 | 0.00 | 0.00 | 0.00 | 39 | 1015.1 |
| 20260831163519 | 86 | 75 | 7.0 | 13.0 | 0.00 | 0.00 | 0.00 | 39 | 1015.1 |
| 20260831163019 | 87 | 76 | 7.0 | 11.3 | 0.00 | 0.00 | 0.00 | 39 | 1015.1 |
| 20260831162519 | 87 | 83 | 4.3 | 13.9 | 0.00 | 0.00 | 0.00 | 39 | 1015.1 |
| 20260831162017 | 87 | 57 | 8.7 | 13.0 | 0.00 | 0.00 | 0.00 | 39 | 1015.1 |
| 20260831161517 | 88 | 90 | 7.0 | 11.3 | 0.00 | 0.00 | 0.00 | 38 | 1015.1 |
| 20260831161017 | 88 | 138 | 4.3 | 11.3 | 0.00 | 0.00 | 0.00 | 38 | 1015.1 |
| 20260831160517 | 88 | 39 | 2.6 | 11.3 | 0.00 | 0.00 | 0.00 | 38 | 1015.0 |
| 20260831160016 | 88 | 121 | 6.1 | 10.4 | 0.00 | 0.00 | 0.00 | 38 | 1015.2 |
| 20260831155518 | 88 | 75 | 6.1 | 13.9 | 0.00 | 0.00 | 0.00 | 38 | 1015.1 |
| 20260831155016 | 88 | 105 | 7.8 | 14.8 | 0.00 | 0.00 | 0.00 | 38 | 1015.0 |
| 20260831154524 | 89 | 61 | 7.0 | 10.4 | 0.00 | 0.00 | 0.00 | 38 | 1015.1 |
| 20260831154014 | 89 | 84 | 1.7 | 11.3 | 0.00 | 0.00 | 0.00 | 38 | 1014.9 |
| 20260831153514 | 89 | 94 | 6.1 | 11.3 | 0.00 | 0.00 | 0.00 | 38 | 1015.0 |
| 20260831153015 | 89 | 47 | 5.2 | 11.3 | 0.00 | 0.00 | 0.00 | 38 | 1015.0 |
| 20260831152511 | 89 | 78 | 6.1 | 13.9 | 0.00 | 0.00 | 0.00 | 38 | 1014.9 |
| 20260831152011 | 89 | 119 | 8.7 | 13.0 | 0.00 | 0.00 | 0.00 | 38 | 1014.9 |
| 20260831151510 | 90 | 112 | 8.7 | 13.0 | 0.00 | 0.00 | 0.00 | 37 | 1014.9 |
| 20260831151011 | 90 | 65 | 6.1 | 11.3 | 0.00 | 0.00 | 0.00 | 37 | 1014.9 |
| 20260831150507 | 90 | 144 | 5.2 | 13.0 | 0.00 | 0.00 | 0.00 | 37 | 1014.8 |
| 20260831150008 | 90 | 82 | 8.7 | 13.9 | 0.00 | 0.00 | 0.00 | 38 | 1014.8 |
| 20260831145507 | 90 | 43 | 7.0 | 13.9 | 0.00 | 0.00 | 0.00 | 37 | 1014.8 |
| 20260831145012 | 90 | 59 | 4.3 | 11.3 | 0.00 | 0.00 | 0.00 | 37 | 1014.8 |
| 20260831144507 | 91 | 11 | 3.5 | 11.3 | 0.00 | 0.00 | 0.00 | 38 | 1014.8 |
| 20260831144107 | 90 | 103 | 7.0 | 12.2 | 0.00 | 0.00 | 0.00 | 38 | 1015.0 |
| 20260831143507 | 90 | 83 | 7.8 | 12.2 | 0.00 | 0.00 | 0.00 | 38 | 1015.0 |
| 20260831143008 | 90 | 45 | 3.5 | 8.7 | 0.00 | 0.00 | 0.00 | 38 | 1015.0 |
| 20260831142506 | 90 | 132 | 2.6 | 11.3 | 0.00 | 0.00 | 0.00 | 38 | 1014.9 |
| 20260831142006 | 90 | 101 | 3.5 | 11.3 | 0.00 | 0.00 | 0.00 | 38 | 1014.9 |
| 20260831141505 | 90 | 111 | 5.2 | 10.4 | 0.00 | 0.00 | 0.00 | 38 | 1015.0 |
| 20260831141008 | 90 | 134 | 2.6 | 12.2 | 0.00 | 0.00 | 0.00 | 38 | 1015.2 |
| 20260831140505 | 91 | 82 | 7.0 | 12.2 | 0.00 | 0.00 | 0.00 | 38 | 1015.1 |
| 20260831140007 | 91 | 107 | 3.5 | 16.5 | 0.00 | 0.00 | 0.00 | 38 | 1015.1 |
| 20260831135505 | 91 | 80 | 10.4 | 16.5 | 0.00 | 0.00 | 0.00 | 38 | 1014.9 |
| 20260831135005 | 90 | 167 | 8.7 | 13.0 | 0.00 | 0.00 | 0.00 | 39 | 1015.0 |
| 20260831134513 | 90 | 158 | 6.1 | 11.3 | 0.00 | 0.00 | 0.00 | 39 | 1015.0 |